TimeAKST,TemperatureF,Dew PointF,Humidity,Sea Level PressureIn,VisibilityMPH,Wind Direction,Wind SpeedMPH,Gust SpeedMPH,PrecipitationIn,Events,Conditions,WindDirDegrees,DateUTC
12:55 AM,-0.2,-8.0,70,29.37,10.0,ESE,4.6,-,N/A,,Clear,110,2012-12-03 09:55:00
1:55 AM,-0.6,-8.0,71,29.38,10.0,ESE,4.6,-,N/A,,Clear,110,2012-12-03 10:55:00
2:55 AM,-2.0,-8.5,74,29.39,10.0,Calm,Calm,-,N/A,,Clear,0,2012-12-03 11:55:00
3:55 AM,-2.2,-8.5,75,29.41,10.0,East,4.6,-,N/A,,Clear,90,2012-12-03 12:55:00
4:55 AM,1.9,-5.4,71,29.42,10.0,Calm,Calm,-,N/A,,Clear,0,2012-12-03 13:55:00
5:55 AM,-6.9,-12.6,76,29.44,10.0,SE,3.5,-,N/A,,Clear,130,2012-12-03 14:55:00
6:55 AM,-4.7,-10.1,78,29.44,10.0,Calm,Calm,-,N/A,,Clear,0,2012-12-03 15:55:00
7:55 AM,0.3,-5.4,77,29.47,10.0,East,6.9,-,N/A,,Clear,80,2012-12-03 16:55:00
8:55 AM,-6.3,-12.1,76,29.48,10.0,East,3.5,-,N/A,,Clear,100,2012-12-03 17:55:00
9:55 AM,-4.0,-10.3,74,29.50,10.0,East,6.9,-,N/A,,Clear,90,2012-12-03 18:55:00
10:26 AM,1.4,-5.8,72,29.50,2.5,Calm,Calm,-,N/A,,Haze,0,2012-12-03 19:26:00
10:34 AM,1.4,-5.8,72,29.50,3.0,Calm,Calm,-,N/A,,Haze,0,2012-12-03 19:34:00
10:55 AM,2.7,-10.7,54,29.51,10.0,East,9.2,-,N/A,,Clear,100,2012-12-03 19:55:00
11:55 AM,-0.9,-8.3,71,29.52,10.0,ESE,3.5,-,N/A,,Clear,120,2012-12-03 20:55:00
12:55 PM,12.9,-4.9,45,29.53,10.0,ENE,11.5,-,N/A,,Clear,60,2012-12-03 21:55:00
1:55 PM,10.6,-4.4,51,29.54,10.0,Variable,3.5,-,N/A,,Clear,0,2012-12-03 22:55:00
2:55 PM,7.9,-4.2,58,29.54,10.0,SW,4.6,-,N/A,,Overcast,230,2012-12-03 23:55:00
3:55 PM,12.9,-7.4,40,29.54,10.0,Calm,Calm,-,N/A,,Mostly Cloudy,0,2012-12-04 00:55:00
4:55 PM,12.2,-7.6,41,29.55,10.0,Variable,4.6,-,N/A,,Mostly Cloudy,0,2012-12-04 01:55:00
5:55 PM,11.8,-8.5,40,29.54,10.0,Variable,6.9,-,N/A,,Clear,0,2012-12-04 02:55:00
6:55 PM,5.5,-6.3,58,29.53,10.0,East,4.6,-,N/A,,Clear,90,2012-12-04 03:55:00
7:55 PM,0.3,-8.1,68,29.54,10.0,East,3.5,-,N/A,,Clear,100,2012-12-04 04:55:00
8:55 PM,2.5,-7.8,62,29.55,10.0,Calm,Calm,-,N/A,,Clear,0,2012-12-04 05:55:00
9:55 PM,10.9,-6.0,47,29.53,10.0,NNE,6.9,-,N/A,,Partly Cloudy,30,2012-12-04 06:55:00
10:55 PM,7.9,-8.7,47,29.55,10.0,Variable,6.9,-,N/A,,Partly Cloudy,0,2012-12-04 07:55:00
11:55 PM,9.1,-10.7,40,29.55,10.0,NNE,12.7,-,N/A,,Overcast,30,2012-12-04 08:55:00